TimeEST,TemperatureF,Dew PointF,Humidity,Sea Level PressureIn,VisibilityMPH,Wind Direction,Wind SpeedMPH,Gust SpeedMPH,PrecipitationIn,Events,Conditions,WindDirDegrees,DateUTC
12:15 AM,31.6,30.6,96,30.24,2.0,Calm,Calm,-,N/A,,Overcast,0,2013-02-26 05:15:00
12:35 AM,31.6,30.6,96,30.24,2.0,Calm,Calm,-,N/A,,Overcast,0,2013-02-26 05:35:00
12:55 AM,32.0,30.9,96,30.25,2.0,Calm,Calm,-,N/A,Snow,Light Snow,0,2013-02-26 05:55:00
1:15 AM,32.0,31.1,96,30.25,2.0,Calm,Calm,-,N/A,,Overcast,0,2013-02-26 06:15:00
1:35 AM,32.0,31.1,96,30.26,1.5,Calm,Calm,-,N/A,,Overcast,0,2013-02-26 06:35:00
1:55 AM,32.0,31.1,96,30.26,1.5,Calm,Calm,-,N/A,,Overcast,0,2013-02-26 06:55:00
2:15 AM,32.0,31.1,96,30.25,1.0,Calm,Calm,-,N/A,Snow,Light Snow,0,2013-02-26 07:15:00
2:35 AM,32.0,30.9,96,30.26,1.2,Calm,Calm,-,N/A,,Overcast,0,2013-02-26 07:35:00
2:55 AM,31.8,30.9,96,30.26,1.2,Calm,Calm,-,N/A,,Overcast,0,2013-02-26 07:55:00
3:15 AM,29.7,28.4,95,30.27,1.5,Calm,Calm,-,N/A,,Overcast,0,2013-02-26 08:15:00
3:35 AM,29.7,28.8,96,30.28,1.5,Calm,Calm,-,N/A,,Overcast,0,2013-02-26 08:35:00
3:55 AM,30.2,29.3,96,30.28,1.5,Calm,Calm,-,N/A,,Overcast,0,2013-02-26 08:55:00
4:15 AM,30.7,29.8,96,30.28,1.5,Calm,Calm,-,N/A,,Overcast,0,2013-02-26 09:15:00
4:35 AM,30.7,29.8,96,30.28,1.5,Calm,Calm,-,N/A,,Overcast,0,2013-02-26 09:35:00
4:55 AM,30.6,29.7,96,30.29,1.5,SE,3.5,-,N/A,,Overcast,140,2013-02-26 09:55:00
5:15 AM,32.0,31.1,96,30.29,1.8,Calm,Calm,-,N/A,,Overcast,0,2013-02-26 10:15:00
5:35 AM,32.0,31.1,96,30.30,2.0,Calm,Calm,-,N/A,,Overcast,0,2013-02-26 10:35:00
5:55 AM,32.0,31.1,96,30.30,2.0,Calm,Calm,-,N/A,,Overcast,0,2013-02-26 10:55:00
6:15 AM,30.6,29.7,96,30.30,1.8,Calm,Calm,-,N/A,,Overcast,0,2013-02-26 11:15:00
6:35 AM,32.0,31.1,96,30.30,2.0,Calm,Calm,-,N/A,,Overcast,0,2013-02-26 11:35:00
6:55 AM,32.0,31.1,96,30.30,1.2,Calm,Calm,-,N/A,,Overcast,0,2013-02-26 11:55:00
7:15 AM,32.0,31.1,96,30.30,1.2,Calm,Calm,-,N/A,,Overcast,0,2013-02-26 12:15:00
7:35 AM,32.0,31.1,96,30.30,1.2,Calm,Calm,-,N/A,,Overcast,0,2013-02-26 12:35:00
7:55 AM,32.0,31.1,96,30.31,2.0,Calm,Calm,-,N/A,,Overcast,0,2013-02-26 12:55:00
8:15 AM,32.0,31.1,96,30.31,2.5,SSE,3.5,-,N/A,,Overcast,160,2013-02-26 13:15:00
8:35 AM,32.0,31.1,96,30.31,2.5,Calm,Calm,-,N/A,,Overcast,0,2013-02-26 13:35:00
8:55 AM,32.0,30.9,96,30.32,3.0,Calm,Calm,-,N/A,,Overcast,0,2013-02-26 13:55:00
9:15 AM,33.6,32.0,94,30.32,4.0,Calm,Calm,-,N/A,,Overcast,0,2013-02-26 14:15:00
9:35 AM,34.3,31.6,90,30.32,5.0,SE,3.5,-,N/A,,Overcast,130,2013-02-26 14:35:00
9:55 AM,36.5,32.2,84,30.31,7.0,Calm,Calm,-,N/A,,Overcast,0,2013-02-26 14:55:00
10:15 AM,36.3,31.3,82,30.31,10.0,Calm,Calm,-,N/A,,Mostly Cloudy,0,2013-02-26 15:15:00
10:35 AM,36.9,30.2,77,30.30,10.0,Calm,Calm,-,N/A,,Mostly Cloudy,0,2013-02-26 15:35:00
10:55 AM,38.5,30.0,72,30.30,10.0,Calm,Calm,-,N/A,,Mostly Cloudy,0,2013-02-26 15:55:00
11:15 AM,38.5,28.8,68,30.30,10.0,NE,5.8,-,N/A,,Mostly Cloudy,40,2013-02-26 16:15:00
11:35 AM,38.8,28.4,66,30.30,10.0,ESE,6.9,-,N/A,,Mostly Cloudy,110,2013-02-26 16:35:00
11:55 AM,39.4,27.5,62,30.30,10.0,Calm,Calm,-,N/A,,Mostly Cloudy,0,2013-02-26 16:55:00
12:15 PM,39.4,27.7,63,30.29,10.0,ESE,3.5,-,N/A,,Mostly Cloudy,120,2013-02-26 17:15:00
12:35 PM,39.4,27.3,62,30.29,10.0,Calm,Calm,-,N/A,,Overcast,0,2013-02-26 17:35:00
12:55 PM,39.4,27.0,61,30.28,10.0,Calm,Calm,-,N/A,,Overcast,0,2013-02-26 17:55:00
1:15 PM,40.5,26.6,58,30.28,10.0,Calm,Calm,-,N/A,,Overcast,0,2013-02-26 18:15:00
1:35 PM,39.4,28.4,65,30.27,10.0,NW,3.5,-,N/A,,Overcast,320,2013-02-26 18:35:00
1:55 PM,38.7,28.4,67,30.27,10.0,NW,3.5,-,N/A,,Overcast,310,2013-02-26 18:55:00
2:15 PM,39.4,28.2,64,30.27,10.0,NNW,3.5,-,N/A,,Overcast,340,2013-02-26 19:15:00
2:35 PM,39.2,28.0,64,30.26,10.0,North,4.6,-,N/A,,Overcast,10,2013-02-26 19:35:00
2:55 PM,38.3,28.0,67,30.25,10.0,North,4.6,-,N/A,,Overcast,360,2013-02-26 19:55:00
3:15 PM,36.9,28.0,70,30.24,10.0,North,5.8,-,N/A,,Overcast,10,2013-02-26 20:15:00
3:35 PM,36.9,28.4,71,30.23,10.0,North,5.8,-,N/A,,Overcast,360,2013-02-26 20:35:00
3:55 PM,38.3,29.1,70,30.22,10.0,NNE,3.5,-,N/A,,Overcast,20,2013-02-26 20:55:00
4:15 PM,39.4,28.0,64,30.22,10.0,NE,8.1,-,N/A,,Overcast,50,2013-02-26 21:15:00
4:35 PM,38.3,27.5,65,30.21,10.0,ENE,5.8,-,N/A,,Overcast,70,2013-02-26 21:35:00
4:55 PM,36.9,27.3,68,30.21,10.0,ENE,5.8,-,N/A,,Overcast,70,2013-02-26 21:55:00
5:15 PM,36.9,28.2,71,30.21,10.0,ENE,5.8,-,N/A,,Overcast,70,2013-02-26 22:15:00
5:35 PM,36.9,28.4,71,30.21,10.0,East,3.5,-,N/A,,Overcast,80,2013-02-26 22:35:00
6:15 PM,36.9,28.2,71,30.21,10.0,East,3.5,-,N/A,,Overcast,80,2013-02-26 23:15:00
6:35 PM,36.9,27.1,68,30.21,10.0,ESE,4.6,-,N/A,,Overcast,110,2013-02-26 23:35:00
7:15 PM,36.9,26.4,66,30.20,10.0,ESE,8.1,-,N/A,,Overcast,110,2013-02-27 00:15:00
7:35 PM,36.9,26.4,66,30.20,10.0,ESE,6.9,-,N/A,,Overcast,120,2013-02-27 00:35:00
8:15 PM,36.9,26.8,67,30.21,10.0,ESE,5.8,-,N/A,,Overcast,120,2013-02-27 01:15:00
8:35 PM,36.9,27.3,68,30.21,10.0,ESE,6.9,-,N/A,,Overcast,120,2013-02-27 01:35:00
8:55 PM,36.9,27.3,68,30.21,10.0,SE,6.9,-,N/A,,Overcast,130,2013-02-27 01:55:00
9:15 PM,36.5,27.3,69,30.20,10.0,ESE,6.9,-,N/A,,Overcast,120,2013-02-27 02:15:00
9:35 PM,36.5,27.3,69,30.18,10.0,ESE,8.1,-,N/A,,Overcast,110,2013-02-27 02:35:00
9:55 PM,36.3,27.3,70,30.17,10.0,ESE,6.9,-,N/A,,Overcast,110,2013-02-27 02:55:00
10:15 PM,34.9,26.2,71,30.17,10.0,ESE,5.8,-,N/A,,Overcast,120,2013-02-27 03:15:00
10:35 PM,34.7,26.1,71,30.16,10.0,ESE,6.9,-,N/A,,Overcast,120,2013-02-27 03:35:00
10:55 PM,36.3,26.6,68,30.15,10.0,ESE,5.8,-,N/A,,Overcast,110,2013-02-27 03:55:00
11:15 PM,34.9,25.3,68,30.14,10.0,ESE,8.1,-,N/A,,Mostly Cloudy,110,2013-02-27 04:15:00
11:35 PM,34.9,25.2,68,30.13,10.0,ESE,8.1,-,N/A,,Scattered Clouds,110,2013-02-27 04:35:00
11:55 PM,34.7,24.8,67,30.11,10.0,ESE,8.1,-,N/A,,Clear,110,2013-02-27 04:55:00